#timestamp,LO_Frequency,Hit,StdDev 
1581769795.3,286046943.8,P
1581769815.1,286046942.6,P
1581769835.9,286046943.4,P
1581769855.7,286046943.4,Y
1581769875.5,286046998.9,P
1581769895.4,286046998.8,N
1581769915.2,286046998.3,N
1581769935.1,286046996.7,N
1581769936.0,286046996.7,N
1581769955.8,286046995.3,N
1581769975.6,286046993.4,N
1581769995.5,286046993.7,N
1581770015.3,286046996.1,N
1581770035.1,286046993.6,N
1581770055.9,286046993.9,N
1581770075.7,286046991.9,N
1581770095.6,286046990.4,N
1581770115.4,286046990.1,N
1581770135.2,286046993.2,N
1581770155.1,286046990.2,N
1581770156.0,286046990.2,N
1581770175.8,286046990.6,N
1581770195.7,286046992.5,N
1581770215.5,286046992.8,N
1581770235.3,286046990.1,N
1581770255.2,286046993.1,N
1581770275.9,286046990.4,N
1581770295.7,286046990.9,N
1581770315.6,286046990.9,N
1581770335.4,286046988.6,N
1581770355.2,286046991.6,N
1581770375.1,286046988.5,N
1581770376.0,286046988.5,N
1581770395.8,286046988.8,N
1581770415.7,286046991.1,N
1581770435.5,286046989.3,Y
1581770455.3,286046997.9,P
1581770475.2,286046995.2,N
1581770495.0,286046995.2,N
1581770495.9,286046995.2,N
1581770515.8,286046995.9,N
1581770535.6,286046997.6,N
1581770555.4,286046996.0,N
1581770575.3,286046993.8,Y
1581770595.1,286046999.6,P
1581770615.8,286046999.2,N
1581770635.7,286046998.9,N
1581770655.5,286046998.4,N
1581770675.4,286046996.6,N
1581770695.2,286046997.0,N
1581770715.0,286046996.8,N
1581770715.9,286046996.8,N
1581770735.8,286046997.0,N
1581770755.6,286046998.9,N
1581770775.4,286047000.2,N
1581770795.3,286047001.8,N
1581770815.1,286047003.3,N
1581770835.9,286047004.4,N
1581770855.7,286047004.0,N
1581770875.5,286047003.7,N
1581770895.4,286047004.3,N
1581770915.2,286047001.3,N
1581770935.0,286046999.8,N
1581770936.0,286046999.8,N
1581770955.8,286047002.8,N
1581770975.6,286047000.1,N
1581770995.5,286047000.2,N
1581771015.3,286047000.1,N
1581771035.1,286047000.9,N
1581771055.9,286046998.5,N
1581771075.7,286046998.5,N
1581771095.6,286046999.2,N
1581771115.4,286046997.4,N
1581771135.2,286046997.2,N
1581771155.1,286046995.4,N
1581771156.0,286046995.4,N
1581771175.8,286046995.0,N
1581771195.6,286046995.4,N
1581771215.5,286046997.9,N
1581771235.3,286046995.1,N
1581771255.2,286046996.3,N
1581771275.9,286046995.9,N
1581771295.7,286046995.8,N
1581771315.6,286046996.2,N
1581771335.4,286046993.4,N
1581771355.2,286046995.4,N
1581771375.1,286046996.1,N
1581771376.0,286046996.1,N
1581771395.8,286046993.5,N
1581771415.7,286046994.0,N
1581771435.5,286046994.1,N
1581771455.3,286046993.9,N
1581771475.2,286046993.9,N
1581771495.0,286046996.4,N
1581771495.9,286046996.4,N
1581771515.8,286046993.3,Y
1581771535.6,286046999.6,P
1581771555.4,286046997.3,N
1581771575.3,286046997.5,N
1581771595.1,286046995.3,Y
